International Skating Union - Official Site

Essent ISU World Cup Astana
November 30, December 1-2, 2013

Draw | Lap Times | Index | World Cup

Referee: Melanie  SYMALLA  (GER)
Starter: Yong-Seok  OH  (KOR)
StartTime: EndTime: Air Temp: Ice Temp: Humidity:
18:39 19:26 18.4℃ -5.8℃ 41.5
Result 5000m Ladies Division A
Rankings as of Dec 1 2013 10:52AM
Rank: No.: Name: Nation: Time: Behind: Points:
1 14 Martina  Sábliková CZE CZE 6:59.88200m - 21.42 - (21.4)
600m - 54.23 - (32.8)
1000m - 1:26.73 - (32.5)
1400m - 1:59.97 - (33.2)
1800m - 2:32.92 - (32.9)
2200m - 3:06.07 - (33.1)
2600m - 3:39.32 - (33.2)
3000m - 4:12.73 - (33.4)
3400m - 4:46.03 - (33.3)
3800m - 5:19.71 - (33.6)
4200m - 5:53.13 - (33.4)
4600m - 6:26.53 - (33.4)
5000m - 6:59.88 - (33.3)
100
2 23 Claudia  Pechstein GER GER 7:01.10200m - 20.80 - (20.8)
600m - 53.12 - (32.3)
1000m - 1:25.96 - (32.8)
1400m - 1:58.95 - (32.9)
1800m - 2:32.29 - (33.3)
2200m - 3:05.49 - (33.2)
2600m - 3:39.01 - (33.5)
3000m - 4:12.47 - (33.4)
3400m - 4:46.22 - (33.7)
3800m - 5:20.03 - (33.8)
4200m - 5:53.92 - (33.8)
4600m - 6:27.65 - (33.7)
5000m - 7:01.10 - (33.4)
1.22 80
3 64 Yvonne  Nauta NED NED 7:04.64200m - 20.67 - (20.6)
600m - 53.44 - (32.7)
1000m - 1:26.44 - (33.0)
1400m - 1:59.59 - (33.1)
1800m - 2:32.91 - (33.3)
2200m - 3:06.35 - (33.4)
2600m - 3:39.77 - (33.4)
3000m - 4:13.61 - (33.8)
3400m - 4:47.49 - (33.8)
3800m - 5:21.36 - (33.8)
4200m - 5:55.48 - (34.1)
4600m - 6:29.88 - (34.4)
5000m - 7:04.64 - (34.7)
4.76 70
4 30 Shiho  Ishizawa JPN JPN 7:06.79200m - 20.76 - (20.7)
600m - 53.14 - (32.3)
1000m - 1:26.56 - (33.4)
1400m - 2:00.11 - (33.5)
1800m - 2:34.03 - (33.9)
2200m - 3:07.90 - (33.8)
2600m - 3:41.92 - (34.0)
3000m - 4:15.87 - (33.9)
3400m - 4:50.31 - (34.4)
3800m - 5:24.53 - (34.2)
4200m - 5:59.11 - (34.5)
4600m - 6:32.91 - (33.8)
5000m - 7:06.79 - (33.8)
6.91 60
5 40 Nana  Takagi JPN JPN 7:10.50200m - 21.50 - (21.5)
600m - 56.20 - (34.7)
1000m - 1:30.28 - (34.0)
1400m - 2:04.47 - (34.1)
1800m - 2:38.50 - (34.0)
2200m - 3:12.63 - (34.1)
2600m - 3:46.53 - (33.9)
3000m - 4:20.73 - (34.2)
3400m - 4:54.81 - (34.0)
3800m - 5:28.88 - (34.0)
4200m - 6:02.99 - (34.1)
4600m - 6:36.79 - (33.8)
5000m - 7:10.50 - (33.7)
10.62 50
6 29 Masako  Hozumi JPN JPN 7:11.02200m - 21.09 - (21.0)
600m - 53.39 - (32.3)
1000m - 1:26.23 - (32.8)
1400m - 1:59.59 - (33.3)
1800m - 2:33.26 - (33.6)
2200m - 3:07.02 - (33.7)
2600m - 3:40.95 - (33.9)
3000m - 4:15.00 - (34.0)
3400m - 4:49.68 - (34.6)
3800m - 5:24.42 - (34.7)
4200m - 5:59.76 - (35.3)
4600m - 6:35.49 - (35.7)
5000m - 7:11.02 - (35.5)
11.14 45
7 78 Olga  Graf RUS RUS 7:11.43200m - 22.12 - (22.1)
600m - 55.64 - (33.5)
1000m - 1:29.97 - (34.3)
1400m - 2:03.97 - (34.0)
1800m - 2:38.22 - (34.2)
2200m - 3:11.97 - (33.7)
2600m - 3:45.92 - (33.9)
3000m - 4:19.51 - (33.5)
3400m - 4:53.60 - (34.0)
3800m - 5:27.67 - (34.0)
4200m - 6:02.43 - (34.7)
4600m - 6:36.66 - (34.2)
5000m - 7:11.43 - (34.7)
11.55 40
8 70 Katarzyna  Bachleda-Curus POL POL 7:14.40200m - 20.62 - (20.6)
600m - 53.64 - (33.0)
1000m - 1:27.91 - (34.2)
1400m - 2:01.39 - (33.4)
1800m - 2:35.30 - (33.9)
2200m - 3:09.12 - (33.8)
2600m - 3:43.41 - (34.2)
3000m - 4:17.92 - (34.5)
3400m - 4:53.10 - (35.1)
3800m - 5:28.29 - (35.1)
4200m - 6:04.03 - (35.7)
4600m - 6:39.13 - (35.1)
5000m - 7:14.40 - (35.2)
14.52 35
9 69 Ida  Njåtun NOR NOR 7:14.54200m - 20.65 - (20.6)
600m - 53.82 - (33.1)
1000m - 1:27.83 - (34.0)
1400m - 2:02.51 - (34.6)
1800m - 2:36.58 - (34.0)
2200m - 3:10.48 - (33.9)
2600m - 3:44.81 - (34.3)
3000m - 4:19.49 - (34.6)
3400m - 4:54.19 - (34.7)
3800m - 5:29.15 - (34.9)
4200m - 6:04.23 - (35.0)
4600m - 6:39.59 - (35.3)
5000m - 7:14.54 - (34.9)
14.66 30
10 32 Ayaka  Kikuchi JPN JPN 7:14.79200m - 20.72 - (20.7)
600m - 53.94 - (33.2)
1000m - 1:28.21 - (34.2)
1400m - 2:02.11 - (33.9)
1800m - 2:36.34 - (34.2)
2200m - 3:10.53 - (34.1)
2600m - 3:45.23 - (34.7)
3000m - 4:20.02 - (34.7)
3400m - 4:54.79 - (34.7)
3800m - 5:29.61 - (34.8)
4200m - 6:04.89 - (35.2)
4600m - 6:40.03 - (35.1)
5000m - 7:14.79 - (34.7)
14.91 25
11 93 Jilleanne  Rookard USA USA 7:15.62200m - 20.60 - (20.6)
600m - 54.18 - (33.5)
1000m - 1:27.78 - (33.6)
1400m - 2:02.12 - (34.3)
1800m - 2:36.19 - (34.0)
2200m - 3:10.85 - (34.6)
2600m - 3:45.13 - (34.2)
3000m - 4:19.97 - (34.8)
3400m - 4:54.73 - (34.7)
3800m - 5:30.14 - (35.4)
4200m - 6:05.18 - (35.0)
4600m - 6:40.38 - (35.2)
5000m - 7:15.62 - (35.2)
15.74 21
12 73 Luiza  Zlotkowska POL POL 7:16.06200m - 20.71 - (20.7)
600m - 53.81 - (33.1)
1000m - 1:27.41 - (33.6)
1400m - 2:00.91 - (33.5)
1800m - 2:34.19 - (33.2)
2200m - 3:08.30 - (34.1)
2600m - 3:42.84 - (34.5)
3000m - 4:17.48 - (34.6)
3400m - 4:52.80 - (35.3)
3800m - 5:28.19 - (35.3)
4200m - 6:03.90 - (35.7)
4600m - 6:39.90 - (36.0)
5000m - 7:16.06 - (36.1)
16.18 18